www.pogodaiklimat.ru

Погода и климат >> Архив погоды >> Великобритания >> Плимут


АРХИВ ПОГОДЫ в Плимуте

Время (UTC), дата Ветер
(напр.,м/с)
 
Видим.   Явления Облачность Т
(С)
Тd
(С)
f
(%)
Тe
(С)
Тes
(С)
Комфортность P
(гПа)
Po
(гПа)
Тmin
(С)
Tmax
(С)
R
(мм)
R24
(мм)
S
(см)
19 11.09 ЮЗ 5 5000 м слаб. морось с дождем н/о +16.3 +16.1 99 +15 +15 тепло 1024.5 1018.4
20 11.09 ЮЗ 5 3100 м в посл. час дождь н/о +16.1 +16.0 99 +15 +15 тепло 1025.3 1019.2
21 11.09 ЮЗ 4 5000 м дымка н/о +16.1 +16.0 99 +15 +15 тепло 1025.7 1019.6
22 11.09 ЮЗ 4 3100 м дымка н/о +16.0 +16.0 100 +15 +15 тепло 1025.9 1019.8
23 11.09 З 5 9000 м дымка н/о +16.2 +16.1 99 +15 +15 тепло 1026.1 1020.0
00 12.09 ЮЗ 5 400 м туман н/о +16.0 +15.9 99 +15 +15 тепло 1026.2 1020.0 0.2
01 12.09 ЮЗ 5 4100 м в посл. час туман н/о +16.0 +16.0 100 +15 +15 тепло 1026.3 1020.2
02 12.09 ЮЗ 4 1900 м в посл. час туман н/о +16.0 +16.0 100 +15 +15 тепло 1026.6 1020.5
03 12.09 ЮЗ 5 3000 м дымка н/о +15.9 +15.9 100 +15 +15 тепло 1026.8 1020.7
04 12.09 ЮЗ 5 100 м туман н/о +15.9 +15.9 100 +15 +15 тепло 1026.8 1020.7
05 12.09 ЮЗ 4 100 м туман н/о +15.9 +15.9 100 +15 +15 тепло 1027.2 1021.1
06 12.09 ЮЗ 5 2800 м в посл. час туман н/о +15.9 +15.9 100 +15 +15 тепло 1027.6 1021.5 +15.8 0.2
07 12.09 ЮЗ 6 4700 м в посл. час дождь н/о +15.9 +15.9 100 +15 +15 тепло 1028.1 1022.0
08 12.09 ЮЗ 5 11 км н/о +16.2 +16.2 100 +15 +15 тепло 1028.8 1022.7
09 12.09 ЮЗ 6 9000 м дымка н/о +16.4 +16.3 99 +15 +15 по сезону 1029.4 1023.3
10 12.09 ЮЗ 8 24 км н/о +17.2 +17.0 99 +16 +16 по сезону 1029.7 1023.6
11 12.09 0 н/о
12 12.09 ЮЗ 7 н/о н/о +19.3 +16.9 86 +21 +21 комфорт 1029.8 1023.8
13 12.09 Ю 7 н/о н/о +17.9 +16.4 91 +17 +17 тепло 1030.0 1023.9
14 12.09 ЮЗ 7 н/о н/о +17.4 +16.1 92 +16 +16 тепло 1030.1 1024.0
15 12.09 ЮЗ 7 н/о н/о +17.7 +16.3 92 +17 +17 тепло 1029.9 1023.8
16 12.09 ЮЗ 8 н/о н/о +18.4 +16.4 88 +18 +18 тепло 1029.6 1023.5
17 12.09 ЮЗ 8 н/о н/о +17.9 +15.9 88 +17 +17 тепло 1029.8 1023.7
18 12.09 ЮЗ 6 н/о н/о +16.7 +15.6 93 +16 +16 тепло 1029.9 1023.8
19 12.09 ЮЗ 6 н/о н/о +16.3 +15.7 96 +15 +15 тепло 1030.0 1023.9
20 12.09 ЮЗ 6 н/о н/о +16.1 +15.8 98 +15 +15 тепло 1030.5 1024.4
21 12.09 ЮЗ 5 н/о н/о +16.1 +15.9 99 +15 +15 тепло 1030.6 1024.5
22 12.09 ЮЗ 5 н/о н/о +16.1 +16.0 99 +15 +15 тепло 1030.8 1024.7
23 12.09 ЮЗ 4 н/о н/о +16.1 +16.0 99 +15 +15 тепло 1030.9 1024.8
00 13.09 ЮЗ 3 н/о н/о +16.1 +16.1 100 +16 +16 тепло 1031.2 1025.0 0.2
01 13.09 З 2 н/о н/о +16.0 +16.0 100 +16 +16 тепло 1031.4 1025.3
02 13.09 СЗ 2 н/о н/о +16.1 +16.1 100 +16 +16 тепло 1031.5 1025.4
03 13.09 СЗ 3 н/о н/о +16.1 +16.0 99 +16 +16 тепло 1031.9 1025.7
04 13.09 С 2 н/о н/о +15.6 +15.4 99 +15 +15 тепло 1032.4 1026.2
05 13.09 С 3 н/о н/о +14.6 +14.0 96 +14 +14 тепло 1032.7 1026.5
06 13.09 С 3 н/о н/о +13.5 +12.9 96 +12 +12 по сезону 1033.2 1027.0 +13.5 0.2
07 13.09 С 3 н/о н/о +13.1 +12.3 95 +12 +12 по сезону 1033.7 1027.5
08 13.09 С 3 н/о н/о +14.6 +13.2 91 +14 +14 тепло 1034.5 1028.3
09 13.09 СВ 1 н/о н/о +16.6 +13.7 83 +17 +17 тепло 1034.9 1028.8
10 13.09 В 3 н/о н/о +18.4 +12.0 66 +19 +19 тепло 1035.0 1028.9
11 13.09 В 3 н/о н/о +19.9 +12.2 61 +22 +22 комфорт 1035.1 1029.0
12 13.09 С 3 н/о н/о +19.5 +11.6 60 +21 +21 комфорт 1034.9 1028.8
13 13.09 СВ 2 н/о н/о +20.8 +12.3 58 +24 +24 комфорт 1034.6 1028.5
14 13.09 ЮЗ 4 н/о н/о +20.1 +14.6 71 +23 +23 комфорт 1034.7 1028.7
15 13.09 ЮЗ 3 н/о н/о +21.1 +14.0 64 +24 +24 комфорт 1034.5 1028.4
16 13.09 ЮЗ 4 н/о н/о +19.1 +13.6 70 +20 +20 тепло 1034.5 1028.4
17 13.09 ЮЗ 4 н/о н/о +17.8 +13.3 75 +18 +18 тепло 1034.3 1028.1
18 13.09 ЮЗ 3 н/о н/о +16.0 +12.9 82 +16 +16 тепло 1034.7 1028.5 +22.1
19 13.09 З 1 н/о н/о +13.9 +11.5 85 +14 +14 тепло 1035.0 1028.8
20 13.09 С 2 н/о н/о +13.8 +12.6 92 +13 +13 по сезону 1035.6 1029.4
21 13.09 СВ 2 н/о н/о +13.0 +12.0 94 +12 +12 по сезону 1035.3 1029.1
22 13.09 В 2 н/о н/о +12.4 +10.8 90 +11 +11 тепло 1035.1 1028.8
23 13.09 В 3 н/о н/о +12.0 +9.0 82 +11 +11 по сезону 1034.6 1028.4
00 14.09 В 3 н/о н/о +12.6 +7.6 72 +11 +11 по сезону 1034.4 1028.2
01 14.09 СВ 3 н/о н/о +12.2 +6.6 69 +11 +11 тепло 1034.5 1028.3
02 14.09 В 3 н/о н/о +11.9 +6.5 69 +11 +11 по сезону 1034.5 1028.3
03 14.09 В 3 н/о н/о +11.9 +6.7 70 +10 +10 по сезону 1033.9 1027.7
04 14.09 В 3 н/о н/о +11.6 +7.7 77 +10 +10 тепло 1033.5 1027.3
05 14.09 СВ 3 н/о н/о +10.6 +8.2 85 +9 +9 по сезону 1033.5 1027.2
06 14.09 С 2 н/о н/о +10.0 +8.7 92 +8 +8 прохладно 1033.7 1027.4 +10.0
07 14.09 В 3 н/о н/о +12.6 +11.6 94 +11 +11 по сезону 1033.3 1027.1
08 14.09 В 4 н/о н/о +15.2 +12.9 86 +14 +14 тепло 1033.4 1027.2
09 14.09 В 4 н/о н/о +16.9 +12.7 76 +16 +16 тепло 1033.1 1027.0
10 14.09 СВ 4 н/о н/о +18.2 +12.2 68 +18 +18 тепло 1032.9 1026.8
11 14.09 В 3 н/о н/о +19.7 +13.0 65 +22 +22 комфорт 1032.7 1026.6
12 14.09 В 3 н/о н/о +20.6 +12.7 61 +23 +23 комфорт 1031.9 1025.9
13 14.09 В 2 н/о н/о +21.1 +12.5 58 +23 +23 комфорт 1031.3 1025.2
14 14.09 Ю 4 н/о н/о +20.2 +14.9 72 +23 +23 комфорт 1030.8 1024.8
15 14.09 ЮЗ 4 н/о н/о +20.1 +15.1 73 +23 +23 комфорт 1030.2 1024.2
16 14.09 ЮЗ 4 н/о н/о +19.2 +15.3 78 +21 +21 комфорт 1029.7 1023.7
17 14.09 Ю 4 н/о н/о +18.8 +14.5 76 +20 +20 тепло 1029.4 1023.4
18 14.09 ЮЗ 1 н/о н/о +16.8 +14.4 86 +18 +18 тепло 1029.7 1023.5 +22.2
19 14.09 З 2 н/о н/о +14.9 +13.7 93 +15 +15 тепло 1029.9 1023.8
20 14.09 З 2 н/о н/о +14.4 +13.7 96 +14 +14 тепло 1029.8 1023.6
21 14.09 З 2 н/о н/о +13.5 +13.0 97 +13 +13 по сезону 1029.7 1023.5
22 14.09 З 1 н/о н/о +13.1 +12.7 97 +13 +13 тепло 1029.3 1023.1
23 14.09 З 2 н/о н/о +12.9 +12.6 98 +12 +12 тепло 1029.1 1022.9
00 15.09 СЗ 1 н/о н/о +12.0 +11.6 97 +12 +12 по сезону 1028.7 1022.5
01 15.09 С 2 н/о н/о +11.4 +10.8 96 +10 +10 тепло 1028.1 1021.9
02 15.09 С 2 н/о н/о +10.7 +10.3 97 +10 +10 по сезону 1027.8 1021.6
03 15.09 СЗ 2 н/о н/о +10.6 +10.2 97 +9 +9 по сезону 1027.4 1021.2
04 15.09 СЗ 2 н/о н/о +10.4 +10.1 98 +9 +9 тепло 1027.3 1021.0
05 15.09 З 1 н/о н/о +10.0 +9.7 98 +9 +9 по сезону 1027.3 1021.0
06 15.09 З 1 н/о н/о +11.2 +11.0 99 +11 +11 по сезону 1027.4 1021.1 +9.4 0.2
07 15.09 СЗ 1 н/о н/о +12.1 +12.0 99 +12 +12 по сезону 1027.1 1020.9
08 15.09 СЗ 2 н/о н/о +13.5 +13.1 97 +13 +13 по сезону 1027.2 1021.0
09 15.09 СЗ 4 н/о н/о +15.5 +13.4 87 +15 +15 тепло 1027.5 1021.4
10 15.09 СЗ 3 н/о н/о +17.5 +13.0 75 +17 +17 тепло 1027.0 1020.9
11 15.09 З 3 н/о н/о +19.3 +13.2 68 +21 +21 комфорт 1026.8 1020.8
12 15.09 З 3 н/о н/о +21.2 +14.2 64 +24 +24 комфорт 1026.3 1020.3
13 15.09 Ю 6 н/о н/о +19.8 +14.9 73 +22 +22 комфорт 1025.9 1019.9
14 15.09 Ю 6 н/о н/о +20.2 +14.9 72 +22 +22 комфорт 1025.4 1019.4
15 15.09 Ю 6 н/о н/о +20.1 +16.1 78 +23 +23 комфорт 1025.1 1019.1
16 15.09 СЗ 4 н/о н/о +21.7 +15.0 66 +25 +25 комфорт 1024.3 1018.3
17 15.09 СЗ 5 н/о н/о +19.8 +14.4 71 +22 +22 комфорт 1024.2 1018.2
18 15.09 СЗ 4 н/о н/о +17.4 +14.2 81 +17 +17 тепло 1024.5 1018.4 +22.0
19 15.09 С 5 н/о н/о +16.0 +14.2 89 +15 +15 тепло 1024.8 1018.7
20 15.09 СЗ 4 н/о н/о +15.6 +14.2 91 +15 +15 тепло 1025.1 1019.0
21 15.09 С 4 н/о н/о +15.6 +14.2 91 +15 +15 тепло 1025.1 1019.0
22 15.09 СЗ 4 н/о н/о +15.4 +14.0 91 +14 +14 тепло 1025.0 1018.9
23 15.09 СЗ 5 н/о н/о +14.8 +13.7 93 +13 +13 тепло 1025.0 1018.8
00 16.09 С 5 н/о н/о +14.7 +13.8 94 +13 +13 по сезону 1024.6 1018.5
01 16.09 С 4 н/о н/о +14.6 +13.7 94 +13 +13 тепло 1024.5 1018.4
02 16.09 СЗ 3 н/о н/о +14.1 +13.2 94 +13 +13 тепло 1024.0 1017.9
03 16.09 С 4 н/о н/о +13.7 +13.1 96 +12 +12 по сезону 1023.7 1017.6
04 16.09 СЗ 3 н/о н/о +13.7 +13.4 98 +13 +13 тепло 1023.3 1017.2
05 16.09 С 3 н/о н/о +14.3 +14.0 98 +13 +13 тепло 1023.2 1017.1
06 16.09 С 3 н/о н/о +14.5 +14.1 97 +13 +13 тепло 1023.1 1017.0 +13.5
07 16.09 СЗ 5 н/о н/о +14.9 +14.0 94 +13 +13 тепло 1023.5 1017.4
08 16.09 СЗ 2 н/о н/о +15.7 +14.6 93 +16 +16 тепло 1023.7 1017.6
09 16.09 З 2 н/о н/о +16.6 +15.0 90 +17 +17 тепло 1024.0 1018.0
10 16.09 ЮЗ 2 н/о н/о +17.7 +15.8 89 +18 +18 тепло 1024.0 1017.9
11 16.09 ЮЗ 3 н/о н/о +17.5 +15.6 89 +18 +18 тепло 1024.0 1017.9
12 16.09 СЗ 3 н/о н/о +18.8 +14.8 78 +20 +20 тепло 1023.7 1017.6
13 16.09 С 4 н/о н/о +19.4 +15.3 77 +21 +21 комфорт 1023.6 1017.5
14 16.09 СЗ 3 н/о н/о +19.6 +15.9 79 +22 +22 комфорт 1023.3 1017.3
15 16.09 ЮЗ 3 35 км н/о +19.5 +15.7 79 +22 +22 комфорт 1023.0 1017.0
16 16.09 З 4 40 км н/о +19.5 +15.6 78 +21 +21 комфорт 1022.9 1016.9
17 16.09 З 4 н/о н/о +18.5 +15.4 82 +19 +19 тепло 1022.9 1016.9
18 16.09 СЗ 3 н/о н/о +18.0 +15.2 84 +18 +18 тепло 1023.0 1016.9 +21.0
19 16.09 СЗ 4 н/о н/о +17.3 +15.1 87 +17 +17 тепло 1023.3 1017.2
20 16.09 С 3 н/о н/о +16.8 +15.1 90 +17 +17 тепло 1023.7 1017.7
21 16.09 СЗ 2 н/о н/о +16.5 +15.1 91 +17 +17 тепло 1024.0 1017.9
22 16.09 С 3 н/о н/о +16.0 +15.1 94 +16 +16 тепло 1023.9 1017.8
23 16.09 СЗ 3 н/о н/о +16.0 +15.2 95 +16 +16 тепло 1023.8 1017.7
00 17.09 С 2 н/о н/о +16.0 +15.2 95 +16 +16 тепло 1023.4 1017.3
01 17.09 С 3 н/о н/о +15.9 +14.6 92 +16 +16 тепло 1023.6 1017.5
02 17.09 СЗ 3 н/о н/о +15.6 +13.9 90 +15 +15 тепло 1023.6 1017.5
03 17.09 С 3 н/о н/о +15.3 +13.5 89 +15 +15 тепло 1023.6 1017.5
04 17.09 С 1 н/о н/о +15.0 +13.4 90 +15 +15 тепло 1023.8 1017.7
05 17.09 С 1 н/о н/о +15.1 +13.6 91 +16 +16 тепло 1023.7 1017.6
06 17.09 СВ 4 н/о н/о +15.3 +13.7 90 +14 +14 тепло 1024.3 1018.1 +15.0
07 17.09 СВ 3 н/о н/о +14.5 +11.9 84 +14 +14 тепло 1025.0 1018.9
08 17.09 В 3 н/о н/о +15.7 +11.8 78 +15 +15 тепло 1025.4 1019.2
09 17.09 В 3 н/о н/о +16.1 +11.7 75 +16 +16 тепло 1025.8 1019.7
10 17.09 В 3 н/о н/о +17.1 +12.2 73 +17 +17 тепло 1026.0 1019.9
11 17.09 В 3 н/о н/о +18.9 +11.8 63 +20 +20 тепло 1025.6 1019.6
12 17.09 СВ 2 н/о н/о +19.5 +12.1 62 +21 +21 комфорт 1025.5 1019.5
13 17.09 ЮЗ 4 н/о н/о +20.5 +12.8 61 +23 +23 комфорт 1025.4 1019.4
14 17.09 ЮЗ 4 н/о н/о +19.7 +12.7 64 +21 +21 комфорт 1025.4 1019.4
15 17.09 ЮЗ 4 н/о н/о +18.8 +11.8 64 +19 +19 тепло 1025.3 1019.2
16 17.09 ЮЗ 4 н/о н/о +18.5 +12.2 67 +19 +19 тепло 1025.1 1019.1
17 17.09 ЮЗ 3 н/о н/о +17.2 +11.8 71 +17 +17 тепло 1025.3 1019.3
18 17.09 ЮЗ 2 н/о н/о +15.3 +11.6 79 +15 +15 по сезону 1025.5 1019.4 +20.7
19 17.09 СВ 4 н/о н/о +15.4 +9.4 67 +15 +15 тепло 1025.9 1019.8
20 17.09 СВ 3 н/о н/о +14.4 +8.9 70 +14 +14 тепло 1026.3 1020.2
21 17.09 СВ 3 н/о н/о +13.4 +9.2 76 +12 +12 по сезону 1026.8 1020.6
22 17.09 СВ 3 н/о н/о +12.9 +8.5 75 +12 +12 тепло 1027.1 1020.9
23 17.09 СВ 3 н/о н/о +12.6 +8.2 75 +11 +11 по сезону 1027.2 1021.0
00 18.09 СВ 2 н/о н/о +12.5 +8.1 75 +12 +12 по сезону 1027.1 1021.0
01 18.09 СВ 2 н/о н/о +12.0 +7.5 74 +11 +11 тепло 1027.3 1021.1
02 18.09 В 4 н/о н/о +13.1 +7.5 69 +11 +11 по сезону 1027.2 1021.1
03 18.09 В 3 н/о н/о +12.2 +7.9 75 +11 +11 по сезону 1027.5 1021.3
04 18.09 СВ 3 н/о н/о +11.7 +8.3 80 +10 +10 тепло 1027.8 1021.6
05 18.09 В 3 н/о н/о +11.7 +9.2 85 +10 +10 по сезону 1028.0 1021.8
06 18.09 В 2 н/о н/о +11.1 +9.1 87 +10 +10 по сезону 1028.3 1022.1 +11.1
07 18.09 СВ 1 н/о н/о +11.3 +9.9 91 +11 +11 по сезону 1028.9 1022.7
08 18.09 В 3 н/о н/о +14.1 +11.4 84 +13 +13 по сезону 1029.2 1023.0
09 18.09 В 4 23 км н/о +15.4 +11.0 75 +14 +14 по сезону 1029.6 1023.5
10 18.09 В 5 26 км н/о +16.4 +9.7 65 +16 +16 тепло 1029.8 1023.7
11 18.09 В 3 27 км н/о +18.0 +8.3 53 +18 +18 тепло 1029.8 1023.7
12 18.09 В 4 28 км н/о +18.2 +6.9 48 +18 +18 тепло 1029.5 1023.4
13 18.09 В 4 30 км н/о +18.9 +7.0 46 +19 +19 тепло 1029.4 1023.3
14 18.09 В 4 30 км н/о +19.1 +6.1 43 +20 +20 тепло 1029.3 1023.2
15 18.09 В 4 30 км н/о +19.7 +6.4 42 +21 +21 комфорт 1028.8 1022.7
16 18.09 В 4 30 км н/о +19.4 +7.6 46 +20 +20 тепло 1028.3 1022.2
17 18.09 В 3 28 км н/о +18.6 +7.7 49 +19 +19 тепло 1028.4 1022.4
18 18.09 В 2 28 км н/о +17.1 +7.9 55 +18 +18 тепло 1028.7 1022.6 +20.0
19 18.09 штиль 0 28 км н/о +14.3 +7.2 62 +14 +14 тепло 1029.3 1023.2

 

Местоположение метеостанции Плимут (Великобритания): широта 50.35 долгота -4.12 высота над уровнем моря 50 м.

В архиве по умолчанию представлена погода в Плимуте за последнюю неделю. Архивные данные за месяц целиком и за предыдущие месяцы, начиная с января 2011 года, Вы можете получить, выбрав интересующий диапазон дат из раскрывающегося списка и нажав кнопку "Ввод!".


*Определитесь, кто Вы:
робот инопланетянин человек

Внимание! Время в таблицах - всемирное. Для получения местного времени необходимо прибавить поправку, которая равна 0 ч.

Смотрите также архив погоды в соседних городах и на ближайших метеорологических станциях:

Погода в Кардинхеме (Великобритания) (42 км)
Погода в Аэропорту Эксетер (Великобритания) (65 км)
Погода в Аэропорту Эксетер 2 (Великобритания) (65 км)
Погода на Базе Chivenor (Великобритания) (81 км)
Погода в Данкесуэлле (Великобритания) (85 км)
Погода на Базе Culdrose (Великобритания) (86 км)
Погода в Камборне (Великобритания) (87 км)
Погода в Лискомбе (Великобритания) (89 км)
Погода на Острове Портленд (Великобритания) (120 км)
Погода в Сейнт Атан (Великобритания) (126 км)

Пояснения к столбцам:

Ветер - указаны скорость ветра в м/с - средняя за 10 мин, порывы в срок и между сроками (в фигурных скобках) и направление, откуда дует ветер: С - северный, СВ - северо-восточный, В - восточный, ЮВ - юго-восточный, Ю - южный, ЮЗ - юго-западный, З - западный, СЗ - северо-западный.
Видимость - горизонтальная дальность видимости в метрах или километрах. При видимости от 1 до 10 км при отсутствии осадков обычно наблюдается дымка, при ухудшении видимости до 1 км и менее - туман. В сухую погоду видимость может ухудшаться дымом, пылью или мглою.
Явления - указаны атмосферные явления, наблюдавшиеся в срок или в последний час перед сроком; фигурными скобками обозначены явления, наблюдавшиеся между сроками (за 1-3 часа до срока); квадратными скобками обозначены град или гололедные отложения с указанием их диаметра в мм.
Облачность - указаны через наклонную черту общая и нижняя облачность в баллах и высота нижней границы облаков в метрах; квадратными скобками обозначены формы облаков: Ci - перистые, Cs - перисто-слоистые, Cc - перисто-кучевые, Ac - высококучевые, As - высокослоистые, Sc - слоисто-кучевые, Ns - слоисто-дождевые, Cu - кучевые, Cb - кучево-дождевые. Подробнее классификацию облаков см. в Атласе облаков (PDF).
T - Температура воздуха - температура, измеренная на высоте 2 м над землей.
Td - Температура точки росы - температура, при понижении до которой содержащийся в воздухе водяной пар достигнет насыщения.
f - Относительная влажность воздуха - влажноcть воздуха, измеренная на высоте 2 м над землей.
Te - Эффективная температура - температура, которую ощущает одетый по сезону человек в тени. Характеристика душности погоды. При расчете учитывается влияние влажности воздуха и скорости ветра на теплоощущения человека.
Tes - Эффективная температура на солнце - температура, которую ощущает человек, с поправкой на солнечный нагрев. Характеристика знойности погоды. Зависит от высоты солнца над горизонтом, облачности и скорости ветра. Ночью, в пасмурную погоду, а также при ветре 12 м/с и более поправка равна нулю.
P - Атмосферное давление - приведенное к уровню моря атмосферное давление.
Po - Атмосферное давление - измеренное на уровне метеостанции атмосферное давление.
Tmin - Минимальная температура - минимум температуры воздуха на высоте 2 м над землей.
Tmax - Максимальная температура - максимум температуры воздуха на высоте 2 м над землей.
R - Количество осадков - Количество выпавших осадков за период времени, мм. При наведении курсора мыши на число - период времени, за который выпало указанное количество осадков.
R24 - Количество осадков - Количество выпавших осадков за 24 часа, мм.
S - Снежный покров - Высота снежного покрова, см. При наведении курсора мыши на число - состояние снежного покрова и степень покрытия местности в баллах.